User: anonymous   Login
Location: Vancouver
(49.2500°N, 123.1330°W)
Time: 08:35:31
(UTC-08:00)
Language:

Iridium 35 - Orbit

View from above orbital plane
View from above orbital plane
View from above satellite
View from above satellite

Ground track
Ground track

The orbit data is extracted from the following two-line orbital elements,

1 24966U 97056B   16340.17858406  .00000180  00000-0  57272-4 0  9993
2 24966  86.3975  39.8088 0002164  95.8792 264.2650 14.34220201  4723
Epoch (UTC): 05 December 2016 04:17:09
Eccentricity: 0.0002164
inclination: 86.3975°
perigee height: 776 km
apogee height: 779 km
right ascension of ascending node: 39.8088°
argument of perigee: 95.8792°
revolutions per day: 14.34220201
mean anomaly at epoch: 264.2650°
orbit number at epoch: 472

The dashed part of the orbit path shows where the satellite is in the earth's shadow,  

DLR